Wind_Speed
5 5 5 5 6 8 8 9 9 10 11 12 11 12 13 14 16 18 19 20 21 22 24 25 26 26 27 29 30 31 31 31 31 32 32 31 31 30 30 31 31 32 32 33
5 5 5 5 6 7 8 9 10 10 11 12 12 12 13 14 16 18 19 20 22 23 24 25 26 26 27 30 31 32 32 32 33 33 33 31 32 32 32 32 32 32 33 33
5 5 6 6 7 7 8 9 10 11 11 12 13 14 14 15 17 19 20 21 22 23 25 25 25 26 27 29 31 32 33 32 32 33 33 32 33 32 32 32 32 32 33 34
6 6 7 6 7 8 9 10 11 11 12 13 14 16 16 17 18 19 20 22 22 24 24 26 26 26 27 28 30 31 32 32 32 32 33 33 34 34 33 32 32 33 33 34
8 8 8 8 8 9 10 11 12 12 12 13 14 16 16 17 18 19 20 21 23 24 25 25 26 26 27 28 29 30 31 30 31 32 33 33 34 34 34 33 34 35 35 34
9 9 10 10 10 10 11 12 12 12 13 14 14 16 16 16 18 19 20 22 23 24 25 26 26 26 27 28 28 29 29 30 31 31 32 33 34 35 35 35 34 35 35 35
11 11 10 10 11 12 13 13 13 14 14 15 16 16 16 17 18 20 21 22 23 24 25 25 26 26 27 27 28 28 29 30 31 32 33 33 33 35 36 36 36 35 35 36
13 13 13 13 13 13 14 14 15 16 16 17 17 18 18 18 19 20 22 23 23 25 26 27 27 28 28 28 29 29 30 31 32 32 33 34 34 35 36 36 36 37 37 37
15 16 16 16 15 16 16 16 16 18 18 19 20 20 20 20 21 22 22 24 25 25 27 28 28 29 29 29 29 30 31 32 33 34 35 35 36 36 37 37 37 38 38 38
18 19 19 19 18 19 19 19 20 20 21 21 20 20 21 21 23 23 23 24 26 27 28 29 29 30 31 31 31 32 32 33 35 36 37 37 37 38 38 39 39 39 40 40
21 22 21 22 22 22 22 23 23 23 23 24 24 23 23 24 25 25 25 26 26 27 29 30 31 31 32 33 34 34 35 35 36 38 39 39 39 40 40 40 40 40 41 42
24 24 24 25 25 25 25 26 26 27 27 27 27 26 26 26 26 27 28 28 28 29 30 31 32 33 33 34 35 36 37 38 38 39 40 41 41 41 42 42 42 41 42 43
27 27 27 28 28 28 28 28 29 30 30 29 29 28 28 28 29 29 29 30 30 31 32 33 33 35 35 36 37 37 38 39 39 40 41 42 42 42 43 43 43 43 44 44
30 30 30 30 30 30 30 30 31 31 31 31 30 29 29 31 32 32 31 31 31 32 33 34 36 36 37 38 39 39 40 40 40 41 41 42 43 43 44 44 44 45 46 46
34 34 34 33 33 33 33 33 33 33 33 33 31 31 30 33 34 34 34 34 34 34 35 36 37 38 39 39 40 40 41 42 42 42 42 43 43 44 44 45 46 47 47 47
37 37 37 37 36 36 36 35 35 35 35 35 35 33 33 35 35 36 36 37 37 38 38 39 39 40 40 40 41 41 42 42 42 43 43 44 45 45 45 46 46 47 48 49
39 39 40 39 39 40 39 37 37 37 37 37 37 36 37 38 38 38 39 39 40 40 40 40 40 40 40 40 41 42 42 43 43 44 44 45 45 46 47 47 48 48 48 48
41 41 42 42 42 43 40 39 40 40 39 40 40 40 40 41 41 41 41 41 41 41 41 41 41 41 41 41 42 42 42 43 43 44 45 46 46 47 48 48 49 49 49 49
42 42 43 44 45 45 42 40 41 42 41 41 41 41 42 42 42 42 41 41 41 42 42 42 42 42 43 43 43 43 43 43 44 44 45 45 46 46 47 48 49 49 49 49
43 44 45 45 46 46 43 42 42 43 44 41 42 42 42 42 42 42 42 42 42 43 43 43 44 44 44 44 44 44 44 44 45 45 45 46 46 47 46 47 48 48 48 49
44 45 45 45 46 47 45 44 44 44 44 43 43 43 43 43 43 43 43 43 44 44 44 44 44 44 44 45 45 46 46 46 46 46 46 46 47 47 47 47 47 48 48 49
46 46 46 46 47 47 45 46 45 46 46 45 45 45 45 45 44 44 44 44 44 44 44 44 44 44 44 45 46 47 47 47 47 46 46 47 47 47 47 47 47 47 47 48
47 47 47 47 47 47 47 47 47 47 48 48 48 48 47 47 46 46 45 45 45 45 44 45 45 45 45 46 47 48 48 48 47 47 46 46 46 47 47 47 47 47 47 48
47 47 47 47 47 47 48 48 48 48 49 48 49 49 49 48 48 48 48 47 47 46 46 47 47 48 48 48 48 48 48 48 47 47 47 46 46 46 46 46 47 47 47 48
47 47 48 48 47 48 48 47 47 48 48 48 48 48 48 48 48 48 48 48 48 48 49 49 49 49 49 49 48 48 48 48 48 47 47 47 47 46 46 46 46 47 47 47
46 46 47 48 47 47 46 46 46 47 48 48 48 48 48 49 49 48 48 48 49 49 49 49 49 49 48 48 48 48 47 47 47 47 47 46 46 46 46 45 45 46 46 47
Wind_Direction
304 296 290 288 283 283 282 284 281 270 261 261 255 249 247 244 240 239 238 237 238 239 240 243 244 243 242 242 242 244 247 247 250 251 250 250 251 253 254 255 257 260 260 261
296 290 289 289 289 288 283 285 279 272 266 262 255 250 249 245 243 242 241 241 244 244 243 246 248 247 246 244 245 248 250 250 252 253 252 252 254 257 259 260 259 260 261 262
291 289 284 287 288 290 286 285 279 272 268 263 257 252 251 250 246 244 245 248 249 248 246 248 250 248 249 247 247 251 254 255 255 253 252 251 252 256 259 260 261 261 262 262
290 287 287 292 294 292 287 285 280 274 272 266 262 257 253 252 251 248 248 248 250 250 250 250 251 252 253 251 251 254 255 256 257 257 255 255 255 257 259 260 261 261 261 262
295 291 291 292 292 293 291 284 282 279 276 270 268 266 259 256 254 251 249 250 251 252 252 253 253 255 256 256 256 256 256 257 259 260 259 258 258 259 259 260 261 261 260 262
298 294 294 293 291 290 294 291 283 282 281 277 274 272 270 265 260 254 251 251 252 254 255 255 255 257 258 259 259 258 258 258 260 261 261 260 260 261 261 261 262 262 261 262
296 294 295 293 291 289 292 293 290 285 283 281 278 274 274 272 267 261 258 256 254 254 255 257 257 258 260 260 260 259 259 260 261 262 263 264 264 265 265 263 263 263 263 263
299 296 296 294 291 290 290 289 288 285 283 282 279 276 276 276 272 268 265 262 260 259 258 259 260 259 260 260 261 260 260 261 262 263 265 265 266 267 268 267 267 267 266 265
297 296 295 293 290 289 288 285 284 283 281 279 278 278 277 277 274 272 269 266 264 262 260 261 261 261 261 261 261 262 262 262 262 264 266 266 267 269 269 269 270 269 268 268
292 291 291 292 290 288 286 285 283 282 282 281 279 278 279 276 276 274 270 267 265 265 264 262 262 261 261 261 263 264 264 264 265 265 266 267 268 268 269 269 270 270 270 270
290 288 288 288 287 287 286 282 281 280 279 278 279 280 280 279 277 274 271 268 268 267 265 265 264 264 263 263 263 264 266 266 266 267 267 268 268 268 268 269 269 269 270 270
288 287 285 285 285 284 283 281 279 279 279 278 278 281 282 280 278 275 272 271 270 268 267 266 265 265 265 266 266 267 267 268 268 268 268 268 268 268 269 269 269 269 269 270
285 285 285 285 283 282 281 280 279 278 278 278 279 281 281 280 279 276 275 274 272 270 268 267 266 266 267 268 269 269 270 270 269 269 269 269 269 269 269 270 269 269 269 270
283 283 283 284 284 282 280 278 278 278 279 279 280 280 278 278 277 276 276 275 273 272 270 270 269 268 268 269 270 270 270 270 270 270 270 270 269 269 270 270 270 269 269 270
282 281 281 281 280 279 278 278 278 279 280 281 281 278 278 276 276 277 277 276 275 274 273 273 272 272 271 271 271 272 272 272 271 271 271 271 271 270 270 270 270 270 270 270
279 280 279 279 279 277 276 277 278 279 280 281 280 279 277 276 276 276 277 277 276 275 275 275 274 274 273 273 273 274 274 274 274 273 273 272 272 271 270 270 270 270 270 270
278 279 278 277 277 276 276 278 277 278 279 279 279 279 277 277 276 277 278 278 277 277 276 275 275 275 275 275 275 275 276 275 275 274 274 274 273 272 271 270 270 270 270 271
278 278 278 278 277 276 280 279 278 278 279 279 279 278 278 277 277 277 278 278 278 277 277 276 276 276 275 275 275 275 275 276 275 275 275 274 274 273 272 272 271 271 271 271
276 277 277 278 278 279 279 280 279 279 278 278 279 279 278 278 278 277 278 278 278 277 276 276 275 275 275 275 275 275 275 276 276 275 275 275 274 274 273 272 272 272 273 273
275 275 275 277 278 279 280 279 279 279 279 278 278 278 278 278 278 277 277 277 277 276 276 275 275 275 275 275 275 275 275 276 276 275 275 275 275 274 273 273 273 273 273 273
275 275 275 275 276 277 279 280 279 278 278 277 277 277 277 277 277 277 277 277 276 276 276 276 275 275 275 275 274 275 276 276 276 276 276 276 275 275 274 274 273 273 273 273
275 274 275 275 275 277 278 278 277 277 276 276 277 277 276 276 277 277 277 277 277 277 277 277 277 277 277 276 276 275 276 276 277 276 276 276 275 275 274 274 273 273 273 274
273 275 275 275 276 277 276 276 276 275 275 276 277 276 276 276 276 276 276 276 277 277 277 278 278 278 278 278 278 277 277 276 276 276 276 275 275 274 274 273 273 273 273 274
273 274 274 276 276 276 275 275 275 275 275 276 277 277 277 277 277 277 277 276 276 276 277 278 278 279 279 279 279 279 277 276 275 275 275 274 274 274 273 273 273 274 274 274
273 274 274 275 275 273 274 274 274 274 275 276 276 276 277 277 276 276 276 276 277 277 277 278 278 278 279 278 278 278 277 276 275 274 274 273 273 273 274 273 273 274 274 274
272 273 273 273 273 273 273 272 272 274 275 275 275 275 275 275 276 276 276 277 277 277 277 277 278 278 278 278 278 277 277 275 274 274 274 273 273 273 273 273 273 274 274 275
Height
5736 5737 5736 5735 5735 5735 5734 5734 5733 5733 5733 5733 5734 5735 5736 5737 5739 5740 5742 5744 5746 5748 5749 5751 5753 5754 5756 5758 5759 5760 5762 5763 5764 5765 5766 5768 5770 5770 5771 5772 5773 5774 5774 5775
5737 5736 5735 5734 5734 5734 5733 5733 5732 5732 5731 5732 5732 5733 5734 5735 5736 5738 5739 5741 5743 5744 5746 5747 5748 5749 5750 5752 5753 5754 5755 5757 5758 5759 5760 5761 5763 5764 5764 5765 5765 5766 5767 5767
5735 5736 5734 5734 5733 5733 5733 5732 5731 5731 5730 5730 5731 5732 5732 5732 5733 5734 5736 5737 5738 5740 5742 5742 5743 5744 5745 5746 5747 5749 5749 5750 5751 5752 5753 5755 5756 5757 5757 5757 5758 5758 5759 5759
5734 5733 5733 5732 5732 5731 5731 5731 5730 5729 5728 5728 5729 5729 5730 5729 5730 5731 5732 5733 5734 5735 5736 5738 5738 5739 5740 5740 5742 5743 5743 5744 5744 5745 5746 5747 5748 5749 5750 5750 5750 5751 5751 5751
5733 5732 5731 5731 5731 5730 5729 5729 5728 5727 5726 5726 5726 5725 5727 5726 5726 5727 5728 5728 5729 5730 5731 5732 5733 5733 5734 5735 5735 5736 5737 5737 5738 5738 5739 5740 5740 5741 5742 5742 5743 5743 5743 5743
5731 5730 5730 5729 5729 5728 5727 5726 5726 5725 5724 5724 5723 5722 5723 5722 5722 5723 5723 5724 5724 5725 5726 5726 5727 5727 5728 5729 5729 5730 5730 5731 5731 5731 5731 5732 5732 5733 5734 5734 5734 5734 5735 5735
5729 5728 5727 5726 5726 5725 5724 5724 5723 5721 5721 5720 5719 5719 5720 5718 5718 5718 5718 5718 5719 5719 5720 5720 5721 5721 5722 5722 5722 5723 5723 5723 5724 5724 5724 5724 5724 5725 5725 5725 5726 5725 5725 5726
5726 5726 5724 5723 5723 5722 5721 5720 5720 5718 5717 5716 5715 5714 5716 5714 5713 5712 5712 5712 5712 5713 5713 5713 5713 5714 5715 5715 5715 5715 5716 5716 5716 5716 5717 5716 5716 5716 5716 5716 5716 5716 5716 5716
5723 5722 5721 5720 5719 5718 5717 5716 5715 5714 5712 5711 5710 5710 5710 5709 5708 5707 5706 5706 5706 5706 5706 5706 5706 5707 5707 5707 5707 5708 5708 5708 5708 5708 5708 5708 5708 5707 5707 5707 5707 5707 5706 5706
5718 5718 5717 5716 5715 5714 5713 5711 5710 5708 5706 5705 5705 5705 5705 5703 5702 5701 5700 5700 5699 5699 5699 5699 5699 5699 5699 5699 5699 5699 5699 5699 5699 5699 5699 5699 5698 5698 5698 5697 5697 5697 5696 5696
5713 5712 5712 5710 5709 5708 5707 5706 5704 5702 5701 5700 5698 5701 5698 5697 5696 5694 5693 5693 5692 5692 5691 5691 5691 5691 5690 5690 5690 5690 5690 5690 5689 5689 5689 5689 5688 5688 5688 5687 5687 5686 5686 5685
5706 5705 5704 5704 5703 5701 5700 5699 5698 5697 5695 5693 5691 5695 5691 5690 5688 5687 5686 5684 5684 5684 5683 5682 5682 5682 5681 5681 5680 5680 5680 5679 5679 5679 5678 5678 5677 5677 5677 5676 5676 5675 5675 5675
5699 5698 5696 5696 5697 5695 5692 5691 5690 5688 5687 5685 5684 5688 5683 5681 5679 5678 5677 5676 5675 5675 5674 5673 5673 5672 5672 5671 5670 5670 5669 5669 5668 5668 5667 5666 5666 5666 5665 5665 5664 5664 5664 5663
5690 5689 5689 5688 5686 5684 5684 5683 5681 5679 5678 5677 5677 5677 5675 5672 5670 5669 5668 5667 5666 5665 5664 5663 5663 5662 5661 5660 5660 5659 5658 5657 5657 5656 5655 5655 5654 5654 5653 5653 5652 5652 5651 5651
5680 5680 5679 5678 5676 5675 5674 5673 5671 5670 5669 5667 5668 5667 5666 5662 5660 5659 5658 5657 5656 5655 5654 5653 5652 5651 5650 5650 5648 5647 5646 5645 5645 5644 5643 5642 5642 5641 5641 5640 5640 5639 5639 5638
5669 5669 5668 5668 5666 5664 5663 5663 5661 5660 5658 5657 5656 5656 5655 5652 5650 5649 5648 5647 5646 5645 5643 5642 5641 5640 5639 5638 5637 5636 5635 5633 5632 5631 5631 5630 5629 5628 5628 5627 5627 5626 5625 5625
5658 5657 5655 5655 5654 5652 5653 5654 5651 5649 5648 5646 5645 5646 5643 5641 5640 5639 5637 5636 5634 5633 5632 5630 5629 5628 5627 5626 5625 5624 5622 5621 5620 5619 5618 5617 5616 5615 5614 5614 5613 5612 5612 5611
5647 5645 5642 5641 5641 5639 5644 5642 5639 5637 5636 5634 5633 5632 5630 5629 5628 5627 5625 5623 5622 5620 5619 5618 5617 5616 5615 5613 5612 5611 5610 5609 5607 5606 5604 5603 5602 5601 5600 5600 5599 5598 5598 5597
5634 5632 5630 5628 5626 5626 5630 5629 5626 5624 5623 5622 5620 5619 5617 5616 5614 5614 5612 5610 5609 5607 5606 5605 5604 5603 5602 5601 5599 5598 5597 5595 5594 5592 5591 5590 5589 5588 5587 5586 5585 5584 5583 5583
5621 5619 5618 5615 5613 5613 5617 5615 5612 5610 5609 5609 5607 5605 5604 5602 5602 5602 5599 5597 5596 5594 5593 5592 5590 5589 5588 5587 5586 5585 5583 5582 5580 5579 5577 5576 5575 5574 5573 5572 5571 5570 5569 5568
5608 5606 5604 5602 5599 5599 5603 5600 5598 5598 5597 5594 5593 5591 5591 5589 5588 5588 5586 5584 5582 5581 5579 5578 5577 5575 5574 5573 5572 5571 5569 5568 5566 5565 5564 5562 5561 5559 5558 5558 5557 5556 5555 5554
5593 5592 5591 5589 5586 5589 5588 5585 5584 5583 5581 5580 5578 5577 5576 5576 5574 5573 5572 5570 5569 5567 5566 5564 5563 5562 5560 5558 5557 5556 5555 5554 5552 5551 5550 5548 5546 5545 5544 5543 5542 5541 5540 5539
5579 5579 5576 5576 5576 5574 5572 5570 5569 5567 5566 5565 5564 5563 5562 5561 5560 5559 5557 5556 5554 5553 5551 5550 5548 5547 5546 5544 5542 5541 5540 5539 5537 5536 5535 5533 5532 5530 5529 5528 5527 5526 5525 5524
5565 5563 5561 5560 5561 5559 5556 5555 5554 5552 5551 5550 5549 5548 5546 5546 5545 5544 5542 5541 5540 5538 5537 5536 5534 5533 5531 5529 5528 5526 5525 5523 5522 5521 5520 5519 5517 5516 5515 5513 5512 5511 5510 5509
5550 5548 5546 5545 5545 5543 5542 5540 5538 5537 5536 5535 5534 5533 5531 5530 5529 5528 5527 5526 5525 5524 5522 5521 5519 5518 5516 5514 5512 5511 5509 5508 5507 5506 5505 5504 5503 5502 5500 5499 5498 5497 5496 5494
5537 5534 5531 5531 5530 5528 5528 5526 5523 5522 5522 5520 5519 5518 5517 5515 5515 5514 5512 5511 5510 5508 5507 5505 5504 5502 5500 5499 5497 5496 5494 5493 5492 5491 5490 5489 5488 5487 5486 5485 5484 5482 5481 5479